TimeEDT,TemperatureF,Dew PointF,Humidity,Sea Level PressureIn,VisibilityMPH,Wind Direction,Wind SpeedMPH,Gust SpeedMPH,PrecipitationIn,Events,Conditions,WindDirDegrees,DateUTC
7:00 AM,60.8,59.0,94,29.84,10.0,SSW,15.0,21.9,N/A,,Mostly Cloudy,200,2013-10-16 11:00:00
7:40 AM,62.6,60.8,94,29.84,10.0,SSW,12.7,-,N/A,Rain,Light Rain Showers,200,2013-10-16 11:40:00
8:00 AM,62.6,60.8,94,29.84,10.0,SSW,10.4,-,N/A,,Overcast,200,2013-10-16 12:00:00
9:00 AM,64.4,60.8,88,29.84,12.0,SSW,10.4,-,N/A,,Mostly Cloudy,210,2013-10-16 13:00:00
10:00 AM,66.2,62.6,88,29.84,12.0,SSW,10.4,17.3,N/A,,Overcast,200,2013-10-16 14:00:00
11:00 AM,64.4,60.8,88,29.83,12.0,SSW,11.5,21.9,N/A,,Overcast,200,2013-10-16 15:00:00
12:00 PM,68.0,62.6,83,29.82,12.0,SSW,15.0,20.7,N/A,,Mostly Cloudy,200,2013-10-16 16:00:00
1:00 PM,68.0,60.8,78,29.80,15.0,SSW,19.6,26.5,N/A,,Mostly Cloudy,200,2013-10-16 17:00:00
2:00 PM,68.0,60.8,78,29.77,15.0,SSW,19.6,25.3,N/A,Rain,Light Rain Showers,210,2013-10-16 18:00:00
2:03 PM,68.0,60.8,78,29.77,15.0,SSW,17.3,25.3,N/A,,Mostly Cloudy,210,2013-10-16 18:03:00
3:00 PM,69.8,60.8,73,29.75,15.0,SSW,19.6,27.6,N/A,,Mostly Cloudy,210,2013-10-16 19:00:00
4:00 PM,68.0,60.8,78,29.75,15.0,SSW,16.1,25.3,N/A,,Mostly Cloudy,200,2013-10-16 20:00:00
4:40 PM,66.2,60.8,83,29.74,12.0,SSW,17.3,23.0,N/A,Rain,Light Rain Showers,210,2013-10-16 20:40:00
5:00 PM,64.4,60.8,88,29.73,12.0,SSW,15.0,21.9,N/A,Rain,Light Rain Showers,200,2013-10-16 21:00:00
5:07 PM,64.4,60.8,88,29.74,2.0,SW,13.8,19.6,N/A,Rain,Rain Showers,220,2013-10-16 21:07:00
5:11 PM,64.4,60.8,88,29.74,5.0,WSW,10.4,19.6,N/A,Rain,Light Rain Showers,240,2013-10-16 21:11:00
6:00 PM,64.4,62.6,94,29.74,9.0,SW,10.4,-,N/A,Rain,Light Rain Showers,220,2013-10-16 22:00:00
6:15 PM,64.4,60.8,88,29.74,12.0,SSW,9.2,-,N/A,,Mostly Cloudy,210,2013-10-16 22:15:00
7:00 PM,62.6,60.8,94,29.73,10.0,SSW,6.9,-,N/A,,Mostly Cloudy,200,2013-10-16 23:00:00
8:00 PM,60.8,57.2,88,29.76,12.0,SW,9.2,-,N/A,,Mostly Cloudy,230,2013-10-17 00:00:00
9:00 PM,59.0,53.6,82,29.79,15.0,WSW,9.2,-,N/A,,Partly Cloudy,240,2013-10-17 01:00:00